LiveATC.Net - Listen to live air traffic control over the Internet!

ICAO: CYYJ  IATA: YYJ   Airport: Victoria International Airport
City: Victoria   State/Province: British Columbia
Country: Canada   Continent: North America
CYYJ METAR Weather: CYYJ 230800Z 15013G22KT 20SM SCT018 BKN026 BKN110 OVC180 05/02 A2971 RMK SC3SC3AC1AC1 SLP064
CYYJ Flight Activity (FlightAware)
CYYJ Gnd/Twr
Feed Status: UP   Listeners: 0
Listen right in your browser - requires Flash (in browser, requires Flash)
Click here to listen with your own player (launches your MP3 player)
CYYJ Gnd/Twr Audio Archives
Victoria Ground121.900
Victoria Tower (Inner)119.700
Victoria Tower (Outer)119.100

Feed sponsored by: Victoria Flying Club


Unauthorized use prohibited. See Terms of Service

Find LiveATC Audio Streams

Airport/ARTCC Code

Frequency Search
(e.g., 124.400, 128.75)
Site-wide search

Browse LiveATC Feeds
LiveATC Coverage Map
Top 50 LiveATC Feeds
Bad Weather Areas

Offer a LiveATC Feed
Press Inquiries

LiveATC on iPhone
LiveATC on Android

Windows Phone
Windows 8/10

LiveATC Mobile
(Mobile browser)

ATC Audio Archives
Interesting Recordings

LiveATC Forums

Home Page
Make a Donation
Terms of Use
Privacy Policy

Canadian Air Freqs


FAA Airport Status
Nat'l Airspace Status
Arrival Demand Charts

Server Software By: